| time (UTC) | temp C | wind direction | speed KPH | gust KPH | rain 1hr cm | rain 24hr cm | rain mn cm | humidity % | barometer mb |
| 20260504100507 | -17 | 0.0 | 0.0 | 0.00 | 0.00 | 0.00 | 1015.3 | ||
| 20260504082007 | -17 | 0.0 | 0.0 | 0.00 | 0.00 | 0.00 | 1015.6 | ||
| 20260504081533 | -17 | 0.0 | 0.0 | 0.00 | 0.00 | 0.00 | 1015.6 | ||
| 20260504081008 | -17 | 0.0 | 0.0 | 0.00 | 0.00 | 0.00 | 1015.7 | ||
| 20260504080508 | -17 | 0.0 | 0.0 | 0.00 | 0.00 | 0.00 | 1015.7 | ||
| 20260504050508 | 8 | 277 | 0.0 | 0.0 | 0.00 | 0.00 | 0.00 | 73 | 1015.8 |
| 20260504050021 | 8 | 277 | 0.0 | 0.0 | 0.00 | 0.00 | 0.00 | 72 | 1015.8 |
| 20260504045505 | 8 | 277 | 0.0 | 0.0 | 0.00 | 0.00 | 0.00 | 68 | 1015.8 |
| 20260504045008 | 8 | 264 | 0.0 | 0.0 | 0.00 | 0.00 | 0.00 | 69 | 1015.9 |
| 20260504044529 | 8 | 264 | 0.0 | 1.6 | 0.00 | 0.00 | 0.00 | 67 | 1016.0 |
| 20260504044010 | 9 | 264 | 0.0 | 1.6 | 0.00 | 0.00 | 0.00 | 67 | 1016.0 |
| 20260504043503 | 9 | 252 | 0.0 | 0.0 | 0.00 | 0.00 | 0.00 | 67 | 1015.9 |
| 20260504043015 | 8 | 251 | 0.0 | 0.0 | 0.00 | 0.00 | 0.00 | 66 | 1015.9 |
| 20260504042507 | 8 | 251 | 0.0 | 0.0 | 0.00 | 0.00 | 0.00 | 66 | 1015.9 |
| 20260504042008 | 8 | 273 | 0.0 | 0.0 | 0.00 | 0.00 | 0.00 | 64 | 1015.9 |
| 20260504041538 | 8 | 281 | 0.0 | 0.0 | 0.00 | 0.00 | 0.00 | 68 | 1015.8 |
| 20260504041009 | 8 | 281 | 0.0 | 0.0 | 0.00 | 0.00 | 0.00 | 69 | 1015.8 |
| 20260504040510 | 7 | 281 | 0.0 | 1.6 | 0.00 | 0.00 | 0.00 | 68 | 1015.8 |
| 20260504040032 | 7 | 282 | 0.0 | 1.6 | 0.00 | 0.00 | 0.00 | 70 | 1015.8 |
| 20260504035510 | 7 | 279 | 0.0 | 0.0 | 0.00 | 0.00 | 0.00 | 73 | 1015.8 |
| 20260504035006 | 7 | 279 | 0.0 | 0.0 | 0.00 | 0.00 | 0.00 | 74 | 1015.7 |
| 20260504034518 | 7 | 279 | 0.0 | 0.0 | 0.00 | 0.00 | 0.00 | 74 | 1015.6 |
| 20260504034007 | 7 | 279 | 0.0 | 0.0 | 0.00 | 0.00 | 0.00 | 75 | 1015.6 |
| 20260504033507 | 7 | 279 | 0.0 | 0.0 | 0.00 | 0.00 | 0.00 | 75 | 1015.6 |
| 20260504033025 | 7 | 279 | 0.0 | 0.0 | 0.00 | 0.00 | 0.00 | 75 | 1015.5 |
| 20260504032509 | 7 | 290 | 0.0 | 0.0 | 0.00 | 0.00 | 0.00 | 75 | 1015.4 |
| 20260504032012 | 7 | 290 | 0.0 | 0.0 | 0.00 | 0.00 | 0.00 | 74 | 1015.3 |
| 20260504031530 | 7 | 290 | 0.0 | 0.0 | 0.00 | 0.00 | 0.00 | 73 | 1015.2 |
| 20260504031006 | 7 | 290 | 0.0 | 0.0 | 0.00 | 0.00 | 0.00 | 73 | 1015.2 |
| 20260504030508 | 7 | 290 | 0.0 | 0.0 | 0.00 | 0.00 | 0.00 | 72 | 1015.2 |
| 20260504030022 | 7 | 290 | 0.0 | 0.0 | 0.00 | 0.00 | 0.00 | 72 | 1015.3 |
| 20260504025507 | 7 | 290 | 0.0 | 0.0 | 0.00 | 0.00 | 0.00 | 72 | 1015.2 |
| 20260504025011 | 7 | 290 | 0.0 | 0.0 | 0.00 | 0.00 | 0.00 | 71 | 1015.2 |
| 20260504024526 | 7 | 290 | 0.0 | 0.0 | 0.00 | 0.00 | 0.00 | 71 | 1015.2 |
| 20260504024009 | 7 | 290 | 0.0 | 0.0 | 0.00 | 0.00 | 0.00 | 70 | 1015.2 |
| 20260504023507 | 7 | 290 | 0.0 | 0.0 | 0.00 | 0.00 | 0.00 | 70 | 1015.2 |
| 20260504023018 | 7 | 290 | 0.0 | 0.0 | 0.00 | 0.00 | 0.00 | 69 | 1015.2 |
| 20260504022507 | 8 | 290 | 0.0 | 0.0 | 0.00 | 0.00 | 0.00 | 68 | 1015.2 |
| 20260504022008 | 8 | 290 | 0.0 | 0.0 | 0.00 | 0.00 | 0.00 | 68 | 1015.2 |
| 20260504021524 | 8 | 290 | 0.0 | 0.0 | 0.00 | 0.00 | 0.00 | 67 | 1015.2 |
| 20260504021006 | 8 | 290 | 0.0 | 0.0 | 0.00 | 0.00 | 0.00 | 67 | 1015.2 |
| 20260504020508 | 8 | 290 | 0.0 | 0.0 | 0.00 | 0.00 | 0.00 | 67 | 1015.1 |
| 20260504020036 | 8 | 290 | 0.0 | 0.0 | 0.00 | 0.00 | 0.00 | 66 | 1015.1 |
| 20260504015507 | 8 | 290 | 0.0 | 0.0 | 0.00 | 0.00 | 0.00 | 65 | 1015.2 |
| 20260504015005 | 8 | 290 | 0.0 | 0.0 | 0.00 | 0.00 | 0.00 | 64 | 1015.1 |
| 20260504014502 | 8 | 290 | 0.0 | 0.0 | 0.00 | 0.00 | 0.00 | 63 | 1015.2 |
| 20260504014006 | 9 | 290 | 0.0 | 0.0 | 0.00 | 0.00 | 0.00 | 63 | 1015.1 |
| 20260504013505 | 9 | 290 | 0.0 | 0.0 | 0.00 | 0.00 | 0.00 | 62 | 1015.1 |
| 20260504013006 | 9 | 290 | 0.0 | 0.0 | 0.00 | 0.00 | 0.00 | 61 | 1015.1 |
| 20260504012508 | 9 | 290 | 0.0 | 0.0 | 0.00 | 0.00 | 0.00 | 60 | 1015.0 |
| 20260504012004 | 10 | 290 | 0.0 | 0.0 | 0.00 | 0.00 | 0.00 | 60 | 1015.0 |
| 20260504011515 | 10 | 290 | 0.0 | 0.0 | 0.00 | 0.00 | 0.00 | 56 | 1014.9 |
| 20260504011001 | 10 | 290 | 0.0 | 0.0 | 0.00 | 0.00 | 0.00 | 55 | 1014.8 |
| 20260504010501 | 11 | 290 | 0.0 | 0.0 | 0.00 | 0.00 | 0.00 | 54 | 1014.8 |
| 20260504010005 | 11 | 290 | 0.0 | 0.0 | 0.00 | 0.00 | 0.00 | 52 | 1014.8 |
| 20260504005503 | 11 | 290 | 0.0 | 0.0 | 0.00 | 0.00 | 0.00 | 51 | 1014.8 |
| 20260504005004 | 12 | 290 | 0.0 | 0.0 | 0.00 | 0.00 | 0.00 | 49 | 1014.7 |
| 20260504004515 | 12 | 290 | 0.0 | 0.0 | 0.00 | 0.00 | 0.00 | 47 | 1014.6 |
| 20260504004004 | 12 | 290 | 0.0 | 0.0 | 0.00 | 0.00 | 0.00 | 47 | 1014.6 |
| 20260504003505 | 12 | 290 | 0.0 | 0.0 | 0.00 | 0.00 | 0.00 | 45 | 1014.5 |
| 20260504003019 | 12 | 290 | 0.0 | 0.0 | 0.00 | 0.00 | 0.00 | 44 | 1014.5 |
| 20260504002502 | 13 | 290 | 0.0 | 0.0 | 0.00 | 0.00 | 0.00 | 43 | 1014.5 |
| 20260504002002 | 13 | 290 | 0.0 | 0.0 | 0.00 | 0.00 | 0.00 | 41 | 1014.4 |
| 20260504001511 | 13 | 290 | 0.0 | 0.0 | 0.00 | 0.00 | 0.00 | 41 | 1014.4 |
| 20260504001004 | 13 | 290 | 0.0 | 0.0 | 0.00 | 0.00 | 0.00 | 40 | 1014.4 |
| 20260504000505 | 14 | 290 | 0.0 | 0.0 | 0.00 | 0.00 | 0.00 | 39 | 1014.4 |
| 20260504000013 | 14 | 290 | 0.0 | 1.6 | 0.00 | 0.00 | 0.00 | 39 | 1014.4 |
| 20260503235504 | 15 | 290 | 0.0 | 1.6 | 0.00 | 0.00 | 0.00 | 38 | 1014.3 |
| 20260503235004 | 15 | 258 | 0.0 | 0.0 | 0.00 | 0.00 | 0.00 | 35 | 1014.2 |
| 20260503234503 | 15 | 257 | 0.0 | 0.0 | 0.00 | 0.00 | 0.00 | 35 | 1014.2 |
| 20260503234003 | 15 | 257 | 0.0 | 3.2 | 0.00 | 0.00 | 0.00 | 33 | 1014.1 |
| 20260503233502 | 15 | 257 | 0.0 | 3.2 | 0.00 | 0.00 | 0.00 | 35 | 1014.0 |
| 20260503233011 | 16 | 234 | 0.0 | 3.2 | 0.00 | 0.00 | 0.00 | 32 | 1014.0 |
| 20260503232504 | 16 | 234 | 0.0 | 3.2 | 0.00 | 0.00 | 0.00 | 31 | 1014.0 |
| 20260503232005 | 16 | 271 | 0.0 | 1.6 | 0.00 | 0.00 | 0.00 | 31 | 1014.0 |
| 20260503231518 | 16 | 279 | 0.0 | 3.2 | 0.00 | 0.00 | 0.00 | 31 | 1014.0 |
| 20260503231010 | 16 | 266 | 0.0 | 4.8 | 0.00 | 0.00 | 0.00 | 31 | 1013.9 |
| 20260503230502 | 16 | 234 | 0.0 | 4.8 | 0.00 | 0.00 | 0.00 | 29 | 1013.9 |
| 20260503230011 | 16 | 290 | 0.0 | 3.2 | 0.00 | 0.00 | 0.00 | 29 | 1013.9 |
| 20260503225503 | 16 | 319 | 0.0 | 4.8 | 0.00 | 0.00 | 0.00 | 30 | 1013.9 |
| 20260503225003 | 16 | 340 | 0.0 | 6.4 | 0.00 | 0.00 | 0.00 | 29 | 1014.0 |
| 20260503224513 | 16 | 195 | 3.2 | 11.3 | 0.00 | 0.00 | 0.00 | 29 | 1014.1 |
| 20260503224007 | 16 | 204 | 3.2 | 14.5 | 0.00 | 0.00 | 0.00 | 28 | 1014.0 |
| 20260503223507 | 17 | 334 | 4.8 | 14.5 | 0.00 | 0.00 | 0.00 | 28 | 1013.9 |
| 20260503223026 | 17 | 288 | 3.2 | 11.3 | 0.00 | 0.00 | 0.00 | 29 | 1014.0 |
| 20260503222503 | 16 | 309 | 0.0 | 11.3 | 0.00 | 0.00 | 0.00 | 30 | 1013.9 |
| 20260503222004 | 16 | 271 | 1.6 | 9.7 | 0.00 | 0.00 | 0.00 | 29 | 1013.9 |
| 20260503221508 | 16 | 217 | 1.6 | 8.0 | 0.00 | 0.00 | 0.00 | 30 | 1013.9 |
| 20260503221004 | 16 | 215 | 3.2 | 12.9 | 0.00 | 0.00 | 0.00 | 28 | 1014.0 |
| 20260503220504 | 16 | 207 | 3.2 | 12.9 | 0.00 | 0.00 | 0.00 | 29 | 1014.1 |
| 20260503220016 | 17 | 290 | 3.2 | 6.4 | 0.00 | 0.00 | 0.00 | 30 | 1014.2 |
| 20260503215508 | 17 | 193 | 3.2 | 8.0 | 0.00 | 0.00 | 0.00 | 29 | 1014.0 |
| 20260503215013 | 16 | 322 | 1.6 | 14.5 | 0.00 | 0.00 | 0.00 | 28 | 1014.0 |
| 20260503214508 | 16 | 269 | 3.2 | 14.5 | 0.00 | 0.00 | 0.00 | 28 | 1014.0 |
| 20260503214007 | 16 | 215 | 4.8 | 12.9 | 0.00 | 0.00 | 0.00 | 29 | 1014.1 |
| 20260503213504 | 16 | 317 | 4.8 | 12.9 | 0.00 | 0.00 | 0.00 | 28 | 1014.0 |
| 20260503213012 | 16 | 326 | 6.4 | 16.1 | 0.00 | 0.00 | 0.00 | 31 | 1014.0 |
| 20260503212508 | 16 | 212 | 1.6 | 16.1 | 0.00 | 0.00 | 0.00 | 31 | 1014.1 |
| 20260503212007 | 16 | 314 | 4.8 | 14.5 | 0.00 | 0.00 | 0.00 | 30 | 1014.0 |
| 20260503211519 | 16 | 275 | 1.6 | 11.3 | 0.00 | 0.00 | 0.00 | 30 | 1013.9 |
| 20260503211013 | 16 | 273 | 3.2 | 11.3 | 0.00 | 0.00 | 0.00 | 30 | 1014.0 |
| 20260503210502 | 16 | 229 | 3.2 | 12.9 | 0.00 | 0.00 | 0.00 | 32 | 1014.0 |
| 20260503210006 | 16 | 200 | 4.8 | 16.1 | 0.00 | 0.00 | 0.00 | 30 | 1014.0 |
| 20260503205502 | 16 | 228 | 4.8 | 20.9 | 0.00 | 0.00 | 0.00 | 31 | 1014.0 |
| 20260503205004 | 16 | 159 | 9.7 | 20.9 | 0.00 | 0.00 | 0.00 | 30 | 1014.2 |
| 20260503204516 | 16 | 291 | 4.8 | 16.1 | 0.00 | 0.00 | 0.00 | 33 | 1014.1 |
| 20260503204008 | 16 | 209 | 3.2 | 16.1 | 0.00 | 0.00 | 0.00 | 30 | 1014.1 |
| 20260503203509 | 16 | 300 | 6.4 | 14.5 | 0.00 | 0.00 | 0.00 | 32 | 1014.2 |
| 20260503203033 | 16 | 309 | 6.4 | 20.9 | 0.00 | 0.00 | 0.00 | 31 | 1014.2 |
| 20260503202503 | 16 | 360 | 6.4 | 20.9 | 0.00 | 0.00 | 0.00 | 29 | 1014.3 |
| 20260503202006 | 15 | 241 | 6.4 | 17.7 | 0.00 | 0.00 | 0.00 | 32 | 1014.4 |
| 20260503201511 | 16 | 290 | 4.8 | 12.9 | 0.00 | 0.00 | 0.00 | 32 | 1014.4 |
| 20260503201004 | 16 | 312 | 4.8 | 12.9 | 0.00 | 0.00 | 0.00 | 33 | 1014.6 |
| 20260503200509 | 16 | 335 | 4.8 | 12.9 | 0.00 | 0.00 | 0.00 | 32 | 1014.6 |
| 20260503200025 | 16 | 317 | 1.6 | 9.7 | 0.00 | 0.00 | 0.00 | 34 | 1014.7 |
| 20260503195506 | 16 | 324 | 3.2 | 9.7 | 0.00 | 0.00 | 0.00 | 34 | 1014.8 |
| 20260503195008 | 16 | 348 | 6.4 | 12.9 | 0.00 | 0.00 | 0.00 | 33 | 1014.7 |
| 20260503194527 | 16 | 259 | 4.8 | 12.9 | 0.00 | 0.00 | 0.00 | 31 | 1014.9 |
| 20260503194006 | 16 | 165 | 3.2 | 19.3 | 0.00 | 0.00 | 0.00 | 33 | 1014.8 |
| 20260503193506 | 16 | 281 | 6.4 | 19.3 | 0.00 | 0.00 | 0.00 | 32 | 1014.9 |
| 20260503193025 | 16 | 286 | 4.8 | 12.9 | 0.00 | 0.00 | 0.00 | 32 | 1014.9 |
| 20260503192506 | 16 | 257 | 4.8 | 12.9 | 0.00 | 0.00 | 0.00 | 31 | 1015.0 |
| 20260503192007 | 15 | 283 | 6.4 | 12.9 | 0.00 | 0.00 | 0.00 | 33 | 1014.9 |
| 20260503191547 | 15 | 312 | 4.8 | 12.9 | 0.00 | 0.00 | 0.00 | 33 | 1015.0 |
| 20260503191008 | 15 | 287 | 3.2 | 12.9 | 0.00 | 0.00 | 0.00 | 35 | 1015.3 |
| 20260503190508 | 15 | 319 | 3.2 | 16.1 | 0.00 | 0.00 | 0.00 | 35 | 1015.3 |
| 20260503190011 | 15 | 309 | 4.8 | 16.1 | 0.00 | 0.00 | 0.00 | 33 | 1015.2 |
| 20260503185504 | 15 | 279 | 4.8 | 14.5 | 0.00 | 0.00 | 0.00 | 34 | 1015.2 |
| 20260503185006 | 15 | 331 | 6.4 | 16.1 | 0.00 | 0.00 | 0.00 | 35 | 1015.3 |
| 20260503184520 | 15 | 258 | 3.2 | 16.1 | 0.00 | 0.00 | 0.00 | 36 | 1015.4 |
| 20260503184009 | 15 | 300 | 8.0 | 16.1 | 0.00 | 0.00 | 0.00 | 34 | 1015.4 |
| 20260503183510 | 15 | 352 | 3.2 | 12.9 | 0.00 | 0.00 | 0.00 | 36 | 1015.5 |
| 20260503183025 | 14 | 198 | 4.8 | 12.9 | 0.00 | 0.00 | 0.00 | 35 | 1015.6 |
| 20260503182509 | 14 | 271 | 3.2 | 14.5 | 0.00 | 0.00 | 0.00 | 36 | 1015.5 |
| 20260503182004 | 14 | 256 | 3.2 | 14.5 | 0.00 | 0.00 | 0.00 | 33 | 1015.5 |
| 20260503181514 | 14 | 306 | 6.4 | 14.5 | 0.00 | 0.00 | 0.00 | 37 | 1015.7 |
| 20260503181004 | 14 | 288 | 4.8 | 12.9 | 0.00 | 0.00 | 0.00 | 36 | 1015.6 |
| 20260503180507 | 14 | 299 | 3.2 | 12.9 | 0.00 | 0.00 | 0.00 | 36 | 1015.6 |
| 20260503180026 | 14 | 352 | 6.4 | 12.9 | 0.00 | 0.00 | 0.00 | 33 | 1015.6 |
| 20260503175509 | 13 | 318 | 4.8 | 16.1 | 0.00 | 0.00 | 0.00 | 35 | 1015.7 |
| 20260503175007 | 13 | 282 | 6.4 | 16.1 | 0.00 | 0.00 | 0.00 | 35 | 1015.8 |
| 20260503174530 | 13 | 192 | 6.4 | 14.5 | 0.00 | 0.00 | 0.00 | 35 | 1015.9 |
| 20260503174003 | 13 | 195 | 3.2 | 14.5 | 0.00 | 0.00 | 0.00 | 38 | 1015.8 |
| 20260503173504 | 13 | 282 | 3.2 | 14.5 | 0.00 | 0.00 | 0.00 | 36 | 1015.8 |
| 20260503173015 | 13 | 334 | 3.2 | 14.5 | 0.00 | 0.00 | 0.00 | 38 | 1015.9 |
| 20260503172509 | 13 | 274 | 4.8 | 17.7 | 0.00 | 0.00 | 0.00 | 36 | 1015.9 |
| 20260503172013 | 13 | 263 | 6.4 | 17.7 | 0.00 | 0.00 | 0.00 | 36 | 1016.1 |
| 20260503171526 | 13 | 294 | 6.4 | 17.7 | 0.00 | 0.00 | 0.00 | 37 | 1016.0 |
| 20260503171007 | 13 | 333 | 4.8 | 16.1 | 0.00 | 0.00 | 0.00 | 37 | 1016.0 |
| 20260503170510 | 13 | 258 | 9.7 | 16.1 | 0.00 | 0.00 | 0.00 | 36 | 1016.2 |
| 20260503151004 | 10 | 338 | 3.2 | 17.7 | 0.00 | 0.00 | 0.00 | 40 | 1016.7 |
| 20260503150502 | 10 | 87 | 4.8 | 12.9 | 0.00 | 0.00 | 0.00 | 39 | 1016.9 |
| 20260503130503 | 8 | 280 | 4.8 | 11.3 | 0.00 | 0.00 | 0.00 | 52 | 1016.8 |
| 20260503110504 | 5 | 271 | 3.2 | 0.0 | 0.00 | 0.00 | 0.00 | 1015.9 |